KD2BVA Weather Reports


Display with metric or nautical units.
time (UTC)temp
F
wind
direction
speed
MPH
gust
MPH
rain 1hr
in
rain 24hr
in
rain mn
in
humidity
%
barometer
mb
20260507184033 56 56 1.0 5.0 0.00 0.57 0.00 46 993.6
20260507183525 56 221 2.0 5.0 0.00 0.57 0.00 44 993.7
20260507183033 55 243 2.0 5.0 0.00 0.57 0.00 46 993.8
20260507182535 55 227 1.0 4.0 0.00 0.57 0.00 46 993.8
20260507182024 55 66 1.0 5.0 0.00 0.57 0.00 46 993.8
20260507181535 55 195 3.0 5.0 0.00 0.57 0.00 45 993.9
20260507181037 55 86 1.0 5.0 0.00 0.57 0.00 45 993.9
20260507180526 55 77 1.0 5.0 0.00 0.57 0.00 45 993.9
20260507180024 56 81 1.0 5.0 0.00 0.87 0.00 46 993.9
20260507175535 56 281 1.0 3.0 0.00 0.87 0.00 44 993.9
20260507175023 56 78 0.0 6.0 0.00 0.87 0.00 43 993.9
20260507174525 56 301 3.0 6.0 0.00 0.87 0.00 42 993.9
20260507174035 56 284 1.0 5.0 0.00 0.87 0.00 43 993.9
20260507173527 57 80 2.0 5.0 0.00 0.87 0.00 42 993.9
20260507173052 57 166 1.0 5.0 0.00 0.87 0.00 41 994.0
20260507172529 57 263 1.0 6.0 0.00 0.87 0.00 43 993.9
20260507172040 57 119 2.0 11.0 0.00 0.87 0.00 46 994.1
20260507171520 58 63 4.0 11.0 0.00 0.87 0.00 40 994.0
20260507171030 58 320 2.0 6.0 0.00 0.87 0.00 41 994.0
20260507170542 57 46 1.0 4.0 0.00 0.87 0.00 46 994.0
20260507170020 57 134 0.0 3.0 0.00 0.98 0.00 45 994.2
20260507165531 56 253 1.0 4.0 0.00 0.98 0.00 44 994.3
20260507165041 57 22 2.0 8.0 0.00 0.98 0.00 43 994.3
20260507164521 57 6 2.0 9.0 0.00 0.98 0.00 42 994.5
20260507164030 58 9 3.0 7.0 0.00 0.98 0.00 40 994.5
20260507163542 58 259 3.0 9.0 0.00 0.98 0.00 43 994.5
20260507163021 58 328 3.0 11.0 0.00 0.98 0.00 41 994.6
20260507162531 58 137 4.0 11.0 0.00 0.98 0.00 41 994.7
20260507162032 58 219 3.0 13.0 0.00 0.98 0.00 44 994.7
20260507161521 58 226 4.0 13.0 0.00 0.98 0.00 40 994.7
20260507161033 58 328 0.0 3.0 0.00 0.98 0.00 46 994.8
20260507160535 58 333 0.0 0.0 0.00 0.98 0.00 43 995.0
20260507160024 57 112 0.0 0.0 0.00 1.18 0.00 46 994.9
20260507155521 56 123 0.0 0.0 0.00 1.18 0.00 45 994.9
20260507155027 56 109 0.0 0.0 0.00 1.18 0.00 45 995.0
20260507154539 56 259 0.0 0.0 0.00 1.18 0.00 41 995.1
20260507154025 56 226 0.0 0.0 0.00 1.18 0.00 41 995.1
20260507153535 55 8 0.0 0.0 0.00 1.18 0.00 43 995.3
20260507153021 55 290 0.0 0.0 0.00 1.18 0.00 41 995.3
20260507152529 56 152 0.0 0.0 0.00 1.18 0.00 44 995.2
20260507152037 55 339 0.0 0.0 0.00 1.18 0.00 46 995.3
20260507151524 55 299 0.0 0.0 0.00 1.18 0.00 46 995.3
20260507151027 55 41 0.0 0.0 0.00 1.18 0.00 42 995.4
20260507150537 55 228 0.0 0.0 0.00 1.18 0.00 46 995.4
20260507150036 55 221 0.0 0.0 0.00 1.32 0.00 45 995.5
20260507145524 55 342 0.0 0.0 0.00 1.32 0.00 49 995.3
20260507145032 54 341 0.0 0.0 0.00 1.32 0.00 48 995.3
20260507144519 54 263 0.0 0.0 0.00 1.32 0.00 45 995.4
20260507144028 54 257 0.0 0.0 0.00 1.32 0.00 48 995.3
20260507143535 54 255 0.0 0.0 0.00 1.32 0.00 50 995.3
20260507143042 54 241 0.0 0.0 0.00 1.32 0.00 52 995.4
20260507142523 53 282 0.0 0.0 0.00 1.32 0.00 52 995.4
20260507142032 52 319 0.0 0.0 0.00 1.32 0.00 49 995.3
20260507141540 52 237 0.0 0.0 0.00 1.32 0.00 52 995.4
20260507141020 52 252 0.0 0.0 0.00 1.32 0.00 57 995.5
20260507140529 51 280 0.0 0.0 0.00 1.32 0.00 54 995.5
20260507140039 51 225 0.0 0.0 0.00 1.42 0.00 59 995.6
20260507135520 51 269 0.0 0.0 0.00 1.42 0.00 57 995.5
20260507135029 51 318 0.0 0.0 0.00 1.42 0.00 58 995.6
20260507134530 50 261 0.0 0.0 0.00 1.42 0.00 62 995.6
20260507134020 50 105 0.0 0.0 0.00 1.42 0.00 62 995.6
20260507133531 50 316 0.0 0.0 0.00 1.42 0.00 66 995.5
20260507133031 49 47 0.0 0.0 0.00 1.42 0.00 66 995.6
20260507132520 49 358 0.0 0.0 0.00 1.42 0.00 66 995.6
20260507132021 48 240 0.0 0.0 0.00 1.42 0.00 71 995.7
20260507131531 47 107 0.0 0.0 0.00 1.42 0.00 72 995.8
20260507131039 47 317 0.0 0.0 0.00 1.42 0.00 72 995.8
20260507130521 46 307 0.0 0.0 0.00 1.42 0.00 78 995.8
20260507130030 46 74 0.0 0.0 0.00 1.51 0.00 77 995.9
20260507125520 45 10 0.0 0.0 0.00 1.51 0.00 78 995.8
20260507125020 45 244 0.0 0.0 0.00 1.51 0.00 80 995.7
20260507124529 44 301 0.0 0.0 0.00 1.51 0.00 81 995.7
20260507124036 44 214 0.0 0.0 0.00 1.51 0.00 82 995.7
20260507123548 44 113 0.0 0.0 0.00 1.51 0.00 83 995.7
20260507123024 44 243 0.0 0.0 0.00 1.51 0.00 84 995.7
20260507122534 43 3 0.0 0.0 0.00 1.51 0.00 85 995.7
20260507122035 43 323 0.0 0.0 0.00 1.51 0.00 90 995.6
20260507121607 43 30 0.0 0.0 0.00 1.51 0.00 90 995.6
20260507121045 42 278 0.0 0.0 0.00 1.51 0.00 89 995.6
20260507120557 42 308 0.0 0.0 0.00 1.51 0.00 90 995.6
20260507120043 42 233 0.0 0.0 0.00 1.54 0.00 92 995.5
20260507115551 42 298 0.0 0.0 0.00 1.54 0.00 93 995.5
20260507115056 41 42 0.0 0.0 0.00 1.54 0.00 93 995.4
20260507114545 41 274 0.0 0.0 0.00 1.54 0.00 96 995.4
20260507114052 41 117 0.0 0.0 0.00 1.54 0.00 96 995.4
20260507113543 41 340 0.0 0.0 0.00 1.54 0.00 97 995.2
20260507113051 40 341 0.0 0.0 0.00 1.54 0.00 97 995.1
20260507112520 40 230 0.0 0.0 0.00 1.54 0.00 98 995.1
20260507112020 40 293 0.0 0.0 0.00 1.54 0.00 98 995.1
20260507111531 40 293 0.0 0.0 0.00 1.54 0.00 98 995.0
20260507111040 40 65 0.0 0.0 0.00 1.54 0.00 98 995.0
20260507110522 40 65 0.0 0.0 0.00 1.54 0.00 98 995.0
20260507110031 40 65 0.0 0.0 0.00 1.55 0.00 98 994.9
20260507105542 40 65 0.0 0.0 0.00 1.55 0.00 98 994.8
20260507105022 40 65 0.0 0.0 0.00 1.55 0.00 98 994.8
20260507104533 40 65 0.0 0.0 0.00 1.55 0.00 98 994.7
20260507104040 40 44 0.0 0.0 0.00 1.55 0.00 98 994.5
20260507103522 40 212 0.0 0.0 0.00 1.55 0.00 98 994.4
20260507103032 40 234 0.0 0.0 0.00 1.55 0.00 98 994.3
20260507102542 41 234 0.0 0.0 0.00 1.55 0.00 98 994.2
20260507102021 41 126 0.0 0.0 0.00 1.55 0.00 98 994.3
20260507101531 41 76 0.0 0.0 0.00 1.55 0.00 98 994.3
20260507101033 41 176 0.0 0.0 0.00 1.55 0.00 98 994.2
20260507100525 42 176 0.0 0.0 0.00 1.55 0.00 98 994.3
20260507100034 42 212 0.0 0.0 0.00 1.55 0.00 98 994.3
20260507095535 42 212 0.0 0.0 0.00 1.55 0.00 98 994.3
20260507095025 42 314 0.0 0.0 0.00 1.55 0.00 98 994.4
20260507094526 42 314 0.0 0.0 0.00 1.55 0.00 98 994.4
20260507094036 42 314 0.0 0.0 0.00 1.55 0.00 98 994.4
20260507093528 43 311 0.0 0.0 0.00 1.55 0.00 98 994.2
20260507093027 43 311 0.0 0.0 0.00 1.55 0.00 98 994.2
20260507092537 43 311 0.0 0.0 0.00 1.55 0.00 98 994.1
20260507092027 44 311 0.0 0.0 0.00 1.55 0.00 98 994.0
20260507091535 44 311 0.0 0.0 0.00 1.55 0.00 98 994.0
20260507091033 44 311 0.0 0.0 0.00 1.55 0.00 98 993.9
20260507090525 44 311 0.0 0.0 0.00 1.55 0.00 98 994.0
20260507090034 44 311 0.0 0.0 0.00 1.55 0.00 98 994.1
20260507085534 44 311 0.0 0.0 0.00 1.55 0.00 98 994.2
20260507085022 44 311 0.0 0.0 0.00 1.55 0.00 98 994.3
20260507084523 44 311 0.0 0.0 0.00 1.55 0.00 98 994.4
20260507084034 44 311 0.0 0.0 0.00 1.55 0.00 98 994.4
20260507083525 44 311 0.0 0.0 0.00 1.55 0.00 98 994.3
20260507083021 44 311 0.0 0.0 0.00 1.55 0.00 98 994.2
20260507082532 45 311 0.0 0.0 0.00 1.55 0.00 98 994.1
20260507082021 45 311 0.0 0.0 0.00 1.55 0.00 98 994.3
20260507081521 45 311 0.0 0.0 0.00 1.55 0.00 98 994.2
20260507081030 45 311 0.0 0.0 0.00 1.55 0.00 98 994.5
20260507080542 45 311 0.0 0.0 0.00 1.55 0.00 98 994.5
20260507080021 45 311 0.0 0.0 0.00 1.55 0.00 98 994.3
20260507075527 45 311 0.0 0.0 0.00 1.55 0.00 98 994.3
20260507075037 45 311 0.0 0.0 0.00 1.55 0.00 98 994.3
20260507074538 45 311 0.0 0.0 0.00 1.55 0.00 98 994.2
20260507074028 45 311 0.0 0.0 0.00 1.55 0.00 98 994.3
20260507073535 45 311 0.0 0.0 0.00 1.55 0.00 98 994.4
20260507073035 45 311 0.0 0.0 0.00 1.55 0.00 98 994.6
20260507072524 45 311 0.0 0.0 0.00 1.55 0.00 98 994.7
20260507072025 45 311 0.0 0.0 0.00 1.55 0.00 98 994.6
20260507071535 45 311 0.0 0.0 0.00 1.55 0.00 98 994.6
20260507071024 45 311 0.0 0.0 0.00 1.55 0.00 98 994.4
20260507070528 45 311 0.0 0.0 0.00 1.55 0.00 98 994.3
20260507070037 45 323 0.0 0.0 0.00 1.55 0.00 98 994.1
20260507065527 45 323 0.0 0.0 0.00 1.55 0.00 98 994.0
20260507065024 45 323 0.0 0.0 0.00 1.55 0.00 98 993.9
20260507064533 45 323 0.0 0.0 0.00 1.55 0.00 98 993.9
20260507064043 45 323 0.0 0.0 0.00 1.55 0.00 98 993.9
20260507063527 45 323 0.0 0.0 0.00 1.55 0.00 98 994.0
20260507063035 45 323 0.0 0.0 0.00 1.55 0.00 98 994.0
20260507062545 45 323 0.0 0.0 0.00 1.55 0.00 98 994.0
20260507062026 45 323 0.0 0.0 0.00 1.55 0.00 98 994.1
20260507061536 45 323 0.0 0.0 0.00 1.55 0.00 98 994.1
20260507061045 45 323 0.0 0.0 0.00 1.55 0.00 98 994.1
20260507060526 45 323 0.0 0.0 0.00 1.55 0.00 98 994.0
20260507060030 45 323 0.0 0.0 0.00 1.57 0.00 98 994.1
20260507055533 45 323 0.0 0.0 0.00 1.57 0.00 98 993.9
20260507055022 45 323 0.0 0.0 0.00 1.57 0.00 98 994.0
20260507054533 45 323 0.0 0.0 0.00 1.57 0.00 98 994.1
20260507054035 45 323 0.0 0.0 0.00 1.57 0.00 98 994.1
20260507053527 45 323 0.0 0.0 0.00 1.57 0.00 98 994.2
20260507053034 45 323 0.0 0.0 0.00 1.57 0.00 98 994.3
20260507052545 45 323 0.0 0.0 0.00 1.57 0.00 98 994.1
20260507052023 45 323 0.0 0.0 0.00 1.57 0.00 98 994.3
20260507051534 45 323 0.0 0.0 0.00 1.57 0.00 98 994.3
20260507051044 45 323 0.0 0.0 0.00 1.57 0.00 98 994.5
20260507050524 45 323 0.0 0.0 0.00 1.57 0.00 98 994.4
20260507050033 45 323 0.0 0.0 0.00 1.58 0.00 98 994.6
20260507045533 45 323 0.0 0.0 0.00 1.58 0.00 98 994.5
20260507045023 45 323 0.0 0.0 0.00 1.58 0.00 98 994.7
20260507044534 45 323 0.0 0.0 0.00 1.58 0.00 98 994.9
20260507044035 45 323 0.0 0.0 0.00 1.58 0.00 98 995.0
20260507043526 45 323 0.0 0.0 0.00 1.58 0.00 98 994.9
20260507043032 45 340 0.0 0.0 0.00 1.58 0.00 98 994.7
20260507042531 45 339 0.0 0.0 0.00 1.58 0.00 98 994.6
20260507042021 45 340 0.0 0.0 0.00 1.58 0.00 98 994.8
20260507041521 45 340 0.0 0.0 0.00 1.58 0.00 98 994.7
20260507041032 45 339 0.0 0.0 0.00 1.58 0.00 98 994.9
20260507040525 45 339 0.0 0.0 0.00 1.58 0.00 98 995.0
20260507040023 45 339 0.0 0.0 0.00 1.58 1.58 98 994.8
20260507035535 45 339 0.0 0.0 0.00 1.58 1.58 98 995.0
20260507035044 45 339 0.0 0.0 0.00 1.58 1.58 98 995.0
20260507034525 44 340 0.0 0.0 0.00 1.58 1.58 98 994.7
20260507034036 44 339 0.0 0.0 0.00 1.58 1.58 98 994.3
20260507033548 44 340 0.0 0.0 0.00 1.58 1.58 98 994.5
20260507033028 44 340 0.0 0.0 0.00 1.58 1.58 98 994.8
20260507032537 45 339 0.0 0.0 0.00 1.58 1.58 98 994.8
20260507032046 45 339 0.0 0.0 0.00 1.58 1.58 98 994.6
20260507031527 45 340 0.0 0.0 0.00 1.58 1.58 98 994.8
20260507031034 45 340 0.0 0.0 0.00 1.58 1.58 98 994.9
20260507030545 45 339 0.0 0.0 0.00 1.58 1.58 98 994.8
20260507030025 45 339 0.0 0.0 0.00 1.58 1.58 98 994.9
20260507025549 45 339 0.0 0.0 0.00 1.58 1.58 98 995.1
20260507025100 45 340 0.0 0.0 0.00 1.58 1.58 98 995.2
20260507024547 45 339 0.0 0.0 0.00 1.58 1.58 98 995.2
20260507024100 45 340 0.0 0.0 0.00 1.58 1.58 98 995.3
20260507023551 45 340 0.0 0.0 0.00 1.58 1.58 98 995.0
20260507023057 45 340 0.0 0.0 0.01 1.58 1.58 98 995.3
20260507022546 45 340 0.0 0.0 0.01 1.58 1.58 98 995.3
20260507022053 45 340 0.0 0.0 0.01 1.58 1.58 98 995.2
20260507021600 45 340 0.0 0.0 0.01 1.58 1.58 98 995.2
20260507021047 45 340 0.0 0.0 0.01 1.58 1.58 98 995.2
20260507020600 45 340 0.0 0.0 0.01 1.58 1.58 98 995.3
20260507020109 45 340 0.0 0.0 0.01 1.58 1.58 98 995.2
20260507015600 45 340 0.0 0.0 0.01 1.58 1.58 98 995.1
20260507015038 45 340 0.0 0.0 0.01 1.58 1.58 98 995.1
20260507014528 45 340 0.0 0.0 0.02 1.58 1.58 98 995.1
20260507014029 45 340 0.0 0.0 0.02 1.58 1.58 98 995.1
20260507013541 45 340 0.0 0.0 0.03 1.58 1.58 98 995.2
20260507013026 45 340 0.0 0.0 0.02 1.57 1.57 98 995.1
20260507012525 45 340 0.0 0.0 0.03 1.57 1.57 98 995.0
20260507012036 45 340 0.0 0.0 0.03 1.57 1.57 98 995.0
20260507011526 45 340 0.0 0.0 0.03 1.57 1.57 98 994.9
20260507010531 45 340 0.0 0.0 0.04 1.57 1.57 98 994.9
20260507010034 45 340 0.0 0.0 0.04 1.57 1.57 98 994.8
20260507005533 45 340 0.0 0.0 0.04 1.57 1.57 98 994.8
20260507005039 45 340 0.0 0.0 0.03 1.56 1.56 98 994.8
20260507004521 45 340 0.0 0.0 0.03 1.56 1.56 98 994.7
20260507004045 45 340 0.0 0.0 0.03 1.56 1.56 98 994.8
20260507003525 45 340 0.0 0.0 0.02 1.55 1.55 98 994.7
20260507003029 45 339 0.0 0.0 0.02 1.55 1.55 98 994.5
20260507002538 45 340 0.0 0.0 0.01 1.54 1.54 98 994.3
20260507002039 45 340 0.0 0.0 0.01 1.54 1.54 98 994.2
20260507001528 45 340 0.0 0.0 0.02 1.54 1.54 98 994.2
20260507001037 46 340 0.0 0.0 0.02 1.54 1.54 98 994.2
20260507000540 46 340 0.0 0.0 0.03 1.53 1.53 98 994.1
20260507000029 46 339 0.0 0.0 0.03 1.53 1.53 98 994.1
20260506235528 46 339 0.0 0.0 0.04 1.53 1.53 98 994.0
20260506235034 46 340 0.0 0.0 0.04 1.53 1.53 98 993.7
20260506234524 46 340 0.0 0.0 0.04 1.53 1.53 98 993.7
20260506234024 46 340 0.0 0.0 0.04 1.53 1.53 98 993.6
20260506233536 46 340 0.0 0.0 0.04 1.53 1.53 98 993.5
20260506233045 46 340 0.0 0.0 0.04 1.53 1.53 98 993.5
20260506232525 46 340 0.0 0.0 0.04 1.53 1.53 98 993.3
20260506232035 46 340 0.0 0.0 0.04 1.53 1.53 98 993.3
20260506231545 46 338 0.0 0.0 0.03 1.52 1.52 98 993.4
20260506231025 46 338 0.0 0.0 0.04 1.51 1.51 98 993.2
20260506230537 46 49 0.0 0.0 0.04 1.50 1.50 98 993.1
20260506230045 46 49 0.0 0.0 0.04 1.50 1.50 98 993.1
20260506225526 46 49 0.0 0.0 0.04 1.49 1.49 98 992.8
20260506225046 46 50 0.0 0.0 0.04 1.49 1.49 98 992.8
20260506224555 46 75 0.0 0.0 0.04 1.49 1.49 98 992.8
20260506224043 46 129 0.0 0.0 0.05 1.49 1.49 98 992.8
20260506223548 46 129 0.0 0.0 0.06 1.49 1.49 98 992.8
20260506223054 46 129 0.0 0.0 0.06 1.49 1.49 98 992.7
20260506222542 46 293 0.0 0.0 0.06 1.49 1.49 98 992.6
20260506222050 46 289 0.0 0.0 0.06 1.49 1.49 98 992.5
20260506221600 46 289 0.0 0.0 0.06 1.48 1.48 98 992.5
20260506221047 46 93 0.0 0.0 0.05 1.47 1.47 98 992.4
20260506220556 46 254 0.0 0.0 0.04 1.46 1.46 98 992.3
20260506220055 46 254 0.0 0.0 0.03 1.45 1.45 98 992.4
20260506215542 46 254 0.0 0.0 0.03 1.45 1.45 98 992.4
20260506215049 46 283 0.0 0.0 0.03 1.45 1.45 98 992.2
20260506214557 46 122 0.0 0.0 0.04 1.45 1.45 98 992.1
20260506214044 46 82 0.0 0.0 0.03 1.44 1.44 98 992.1
20260506213555 46 91 0.0 0.0 0.02 1.43 1.43 98 992.0
20260506213059 46 91 0.0 0.0 0.03 1.43 1.43 98 992.0
20260506212547 46 91 0.0 0.0 0.03 1.43 1.43 98 991.9
20260506212050 46 91 0.0 0.0 0.04 1.43 1.43 98 991.7
20260506211600 46 91 0.0 0.0 0.03 1.42 1.42 98 991.8
20260506211047 46 91 0.0 0.0 0.03 1.42 1.42 98 991.8
20260506210600 46 85 0.0 0.0 0.03 1.42 1.42 98 991.8
20260506210046 46 305 0.0 0.0 0.03 1.42 1.42 98 991.8
20260506205555 46 72 0.0 0.0 0.04 1.42 1.42 98 991.7
20260506205105 46 40 0.0 0.0 0.04 1.42 1.42 98 991.7
20260506204549 46 359 0.0 0.0 0.03 1.41 1.41 98 991.8
20260506204053 46 359 0.0 0.0 0.03 1.41 1.41 98 991.9
20260506203606 46 154 0.0 0.0 0.03 1.41 1.41 98 991.9
20260506203052 46 36 0.0 0.0 0.04 1.40 1.40 98 991.8
20260506202604 46 266 0.0 0.0 0.04 1.40 1.40 97 991.6
20260506202042 46 231 0.0 0.0 0.04 1.39 1.39 97 991.6
20260506201603 46 101 0.0 0.0 0.06 1.39 1.39 98 991.6
20260506201042 46 84 0.0 0.0 0.08 1.39 1.39 98 991.5
20260506200552 46 84 0.0 0.0 0.08 1.39 1.39 98 991.6
20260506200055 46 84 0.0 0.0 0.08 1.41 1.39 98 991.6
20260506195542 46 83 0.0 0.0 0.10 1.40 1.38 98 991.7
20260506195050 46 101 0.0 0.0 0.13 1.40 1.38 98 991.7
20260506194559 46 101 0.0 0.0 0.14 1.40 1.38 98 991.7
20260506194045 46 248 0.0 0.0 0.17 1.40 1.38 98 991.8
20260506193557 46 11 0.0 0.0 0.18 1.40 1.38 98 991.8
20260506193043 46 47 0.0 0.0 0.20 1.38 1.36 98 991.8
20260506192551 46 58 0.0 0.0 0.22 1.38 1.36 98 991.8
20260506192054 46 81 0.0 0.0 0.24 1.37 1.35 98 991.8
20260506191541 46 54 0.0 0.0 0.24 1.35 1.33 98 991.7
20260506191049 46 52 0.0 0.0 0.24 1.33 1.31 98 991.6
20260506190602 46 120 0.0 0.0 0.26 1.33 1.31 97 991.6
20260506190047 46 1 0.0 0.0 0.31 1.33 1.31 97 991.5
20260506185555 46 79 0.0 0.0 0.34 1.30 1.28 97 991.6
20260506185043 46 195 0.0 0.0 0.35 1.27 1.25 97 991.8
20260506184550 46 263 0.0 0.0 0.37 1.26 1.24 97 991.7